Regional Weather Roundup
Issued by NWS

Home | Current Version | Previous Version | Graphics & Text | Print | Product List | Glossary On
Versions: 1 2 3 4 5 6 7 8 9 10 11 12 13 14 15 16 17 18 19 20 21 22 23 24 25 26 27 28 29 30 31 32 33 34 35 36 37 38 39 40 41 42 43 44 45 46 47 48 49 50
000
ASUS43 KFSD 302310
RWRSD

WEATHER ROUNDUP FOR SOUTH DAKOTA
NATIONAL WEATHER SERVICE SIOUX FALLS SD
500 PM CST FRI JAN 30 2015

NOTE: "FAIR" INDICATES FEW OR NO CLOUDS BELOW 12,000 FEET WITH NO
SIGNIFICANT WEATHER AND/OR OBSTRUCTIONS TO VISIBILITY.


SDZ001>005-009-010-012>017-310000-
NORTHWEST AND NORTH CENTRAL SOUTH DAKOTA

CITY           SKY/WX    TMP DP  RH WIND       PRES   REMARKS
BUFFALO          N/A     46  24  42 N10       30.08S
FAITH            N/A     46  23  40 N8        30.12S
MOBRIDGE       CLEAR     46  29  51 NW7       30.10S
$$

SDZ012>016-024>037-041>051-057-063-072>074-310000-
SOUTHWEST AND SOUTH CENTRAL SOUTH DAKOTA

CITY           SKY/WX    TMP DP  RH WIND       PRES   REMARKS
RAPID CTY ARPT PTCLDY    48  26  42 N17       30.12S
PIERRE         PTCLDY    44  24  45 W3        30.11F
CUSTER         CLEAR     42  19  39 E6        30.11F
ELLSWORTH AFB  PTCLDY    49  25  40 N13       30.12S
PHILIP         PTCLDY    51  25  36 N3        30.12S
PINE RIDGE     PTCLDY    46  26  45 N9        30.12S
WINNER         FAIR      54  26  34 SW7       30.11F
$$

SDZ004>011-016>023-039-040-310000-
NORTHEAST SOUTH DAKOTA

CITY           SKY/WX    TMP DP  RH WIND       PRES   REMARKS
ABERDEEN       CLEAR     40  31  70 S5        30.14S
WATERTOWN      CLEAR     36  28  73 SW14      30.14R
SISSETON         N/A     37  29  72 W10       30.12
$$

SDZ017-020-022-023-036>040-048>070-310000-
SOUTHEAST SOUTH DAKOTA

CITY           SKY/WX    TMP DP  RH WIND       PRES   REMARKS
SIOUX FALLS    MOCLDY    37  28  70 S15       30.20F
HURON          CLEAR     43  29  57 S6        30.14F
CHAMBERLAIN    CLEAR     49  28  44 N6        30.12S
MITCHELL       CLEAR     46  29  51 S8        30.16F
YANKTON        PTCLDY    45  27  49 S15       30.20F
$$

ABBREVIATIONS USED IN REMARKS
   TC - TEMPERATURE IN CELSIUS
  WCI - WIND CHILL INDEX
   HX - HEAT INDEX
  VSB - VISIBILITY



USA.gov is the U.S. government's official web portal to all federal, state and local government web resources and services.